| time (UTC) | temp C | wind direction | speed KPH | gust KPH | rain 1hr cm | rain 24hr cm | rain mn cm | humidity % | barometer mb |
| 20260507113205 | 10 | 299 | 3.2 | 8.0 | 0.03 | 0.25 | 0.08 | 87 | 1015.8 |
| 20260507112707 | 10 | 244 | 4.8 | 8.0 | 0.03 | 0.25 | 0.08 | 87 | 1015.8 |
| 20260507112204 | 10 | 286 | 3.2 | 8.0 | 0.03 | 0.25 | 0.08 | 88 | 1015.8 |
| 20260507111707 | 10 | 305 | 1.6 | 6.4 | 0.03 | 0.25 | 0.08 | 88 | 1015.8 |
| 20260507111205 | 10 | 237 | 3.2 | 6.4 | 0.03 | 0.25 | 0.08 | 88 | 1016.0 |
| 20260507110704 | 10 | 275 | 1.6 | 8.0 | 0.03 | 0.25 | 0.08 | 88 | 1015.9 |
| 20260507110201 | 10 | 265 | 1.6 | 8.0 | 0.03 | 0.25 | 0.08 | 88 | 1016.0 |
| 20260507105702 | 10 | 303 | 3.2 | 9.7 | 0.03 | 0.23 | 0.08 | 87 | 1015.9 |
| 20260507105203 | 10 | 302 | 6.4 | 9.7 | 0.03 | 0.23 | 0.08 | 87 | 1016.0 |
| 20260507104702 | 10 | 24 | 1.6 | 6.4 | 0.03 | 0.23 | 0.08 | 87 | 1016.0 |
| 20260507104202 | 10 | 288 | 3.2 | 6.4 | 0.00 | 0.23 | 0.05 | 87 | 1015.9 |
| 20260507103703 | 10 | 272 | 3.2 | 6.4 | 0.00 | 0.23 | 0.05 | 86 | 1016.0 |
| 20260507103203 | 10 | 268 | 3.2 | 8.0 | 0.00 | 0.23 | 0.05 | 86 | 1015.9 |
| 20260507102703 | 10 | 302 | 4.8 | 8.0 | 0.00 | 0.23 | 0.05 | 85 | 1015.9 |
| 20260507102202 | 10 | 278 | 1.6 | 11.3 | 0.00 | 0.23 | 0.05 | 85 | 1016.0 |
| 20260507101703 | 10 | 320 | 3.2 | 11.3 | 0.00 | 0.23 | 0.05 | 84 | 1015.9 |
| 20260507101202 | 10 | 330 | 4.8 | 14.5 | 0.00 | 0.23 | 0.05 | 84 | 1015.9 |
| 20260507100704 | 10 | 329 | 8.0 | 16.1 | 0.00 | 0.23 | 0.05 | 84 | 1015.9 |
| 20260507100203 | 10 | 347 | 6.4 | 16.1 | 0.00 | 0.23 | 0.05 | 84 | 1015.8 |
| 20260507095701 | 10 | 333 | 8.0 | 14.5 | 0.00 | 0.23 | 0.05 | 84 | 1015.8 |
| 20260507095203 | 10 | 310 | 6.4 | 14.5 | 0.00 | 0.23 | 0.05 | 86 | 1015.8 |
| 20260507094701 | 10 | 251 | 6.4 | 14.5 | 0.00 | 0.23 | 0.05 | 86 | 1015.7 |
| 20260507094202 | 10 | 340 | 4.8 | 11.3 | 0.00 | 0.23 | 0.05 | 87 | 1015.7 |
| 20260507093701 | 10 | 323 | 4.8 | 8.0 | 0.00 | 0.23 | 0.05 | 87 | 1015.7 |
| 20260507093202 | 10 | 303 | 3.2 | 9.7 | 0.00 | 0.23 | 0.05 | 87 | 1015.7 |
| 20260507092700 | 10 | 283 | 4.8 | 9.7 | 0.00 | 0.23 | 0.05 | 86 | 1015.5 |
| 20260507092159 | 10 | 298 | 3.2 | 11.3 | 0.00 | 0.23 | 0.05 | 86 | 1015.6 |
| 20260507091700 | 10 | 261 | 6.4 | 11.3 | 0.00 | 0.23 | 0.05 | 86 | 1015.5 |
| 20260507091159 | 10 | 299 | 4.8 | 16.1 | 0.00 | 0.23 | 0.05 | 87 | 1015.5 |
| 20260507090659 | 10 | 303 | 4.8 | 16.1 | 0.00 | 0.23 | 0.05 | 87 | 1015.5 |
| 20260507090158 | 10 | 309 | 6.4 | 11.3 | 0.00 | 0.23 | 0.05 | 87 | 1015.3 |
| 20260507085655 | 10 | 265 | 6.4 | 11.3 | 0.00 | 0.23 | 0.05 | 86 | 1015.3 |
| 20260507085156 | 10 | 268 | 1.6 | 11.3 | 0.00 | 0.23 | 0.05 | 89 | 1015.3 |
| 20260507084657 | 10 | 272 | 3.2 | 14.5 | 0.00 | 0.23 | 0.05 | 88 | 1015.2 |
| 20260507084154 | 10 | 296 | 8.0 | 14.5 | 0.00 | 0.23 | 0.05 | 88 | 1015.2 |
| 20260507083653 | 10 | 227 | 3.2 | 14.5 | 0.00 | 0.23 | 0.05 | 90 | 1015.2 |
| 20260507083155 | 10 | 312 | 9.7 | 14.5 | 0.03 | 0.23 | 0.05 | 89 | 1015.2 |
| 20260507082652 | 10 | 282 | 4.8 | 14.5 | 0.03 | 0.23 | 0.05 | 89 | 1015.1 |
| 20260507082152 | 10 | 275 | 3.2 | 14.5 | 0.00 | 0.23 | 0.05 | 90 | 1015.1 |
| 20260507081653 | 10 | 279 | 8.0 | 17.7 | 0.00 | 0.23 | 0.05 | 89 | 1015.1 |
| 20260507081150 | 10 | 248 | 11.3 | 17.7 | 0.00 | 0.23 | 0.05 | 89 | 1015.1 |
| 20260507080648 | 10 | 257 | 1.6 | 14.5 | 0.00 | 0.23 | 0.05 | 90 | 1015.1 |
| 20260507080145 | 9 | 310 | 9.7 | 16.1 | 0.00 | 0.23 | 0.05 | 89 | 1015.0 |
| 20260507075141 | 9 | 285 | 8.0 | 19.3 | 0.03 | 0.23 | 0.05 | 89 | 1014.9 |
| 20260507074644 | 9 | 300 | 9.7 | 19.3 | 0.03 | 0.23 | 0.05 | 89 | 1014.9 |
| 20260507074142 | 9 | 281 | 4.8 | 9.7 | 0.03 | 0.23 | 0.05 | 90 | 1014.8 |
| 20260507073646 | 9 | 289 | 4.8 | 17.7 | 0.03 | 0.23 | 0.05 | 90 | 1014.8 |
| 20260507073141 | 9 | 289 | 4.8 | 17.7 | 0.03 | 0.23 | 0.03 | 90 | 1014.6 |
| 20260507072640 | 9 | 279 | 8.0 | 17.7 | 0.03 | 0.23 | 0.03 | 90 | 1014.6 |
| 20260507072143 | 9 | 276 | 8.0 | 17.7 | 0.03 | 0.23 | 0.03 | 89 | 1014.5 |
| 20260507071639 | 9 | 289 | 8.0 | 19.3 | 0.03 | 0.23 | 0.03 | 90 | 1014.4 |
| 20260507071138 | 9 | 293 | 8.0 | 19.3 | 0.03 | 0.23 | 0.03 | 89 | 1014.4 |
| 20260507070640 | 9 | 266 | 4.8 | 19.3 | 0.03 | 0.23 | 0.03 | 90 | 1014.3 |
| 20260507070137 | 9 | 345 | 8.0 | 19.3 | 0.03 | 0.23 | 0.03 | 90 | 1014.3 |
| 20260507065636 | 9 | 289 | 6.4 | 19.3 | 0.03 | 0.20 | 0.03 | 90 | 1014.3 |
| 20260507065138 | 9 | 252 | 8.0 | 20.9 | 0.03 | 0.20 | 0.03 | 89 | 1014.3 |
| 20260507064636 | 9 | 271 | 9.7 | 20.9 | 0.03 | 0.20 | 0.03 | 89 | 1014.2 |
| 20260507064134 | 9 | 288 | 11.3 | 17.7 | 0.03 | 0.20 | 0.03 | 89 | 1014.3 |
| 20260507063631 | 9 | 276 | 6.4 | 19.3 | 0.00 | 0.20 | 0.00 | 89 | 1014.2 |
| 20260507063134 | 9 | 296 | 8.0 | 19.3 | 0.00 | 0.20 | 0.00 | 88 | 1014.2 |
| 20260507062631 | 9 | 289 | 4.8 | 14.5 | 0.00 | 0.20 | 0.00 | 90 | 1014.1 |
| 20260507062133 | 9 | 278 | 6.4 | 20.9 | 0.00 | 0.20 | 0.00 | 89 | 1014.1 |
| 20260507061632 | 9 | 292 | 9.7 | 20.9 | 0.00 | 0.20 | 0.00 | 89 | 1014.1 |
| 20260507061130 | 9 | 257 | 4.8 | 19.3 | 0.00 | 0.20 | 0.00 | 90 | 1014.1 |
| 20260507060629 | 8 | 281 | 4.8 | 19.3 | 0.00 | 0.20 | 0.00 | 90 | 1013.9 |
| 20260507060130 | 8 | 317 | 4.8 | 17.7 | 0.00 | 0.20 | 0.00 | 90 | 1014.0 |
| 20260507055627 | 8 | 312 | 3.2 | 17.7 | 0.00 | 0.18 | 0.00 | 89 | 1014.0 |
| 20260507055130 | 8 | 299 | 6.4 | 20.9 | 0.00 | 0.18 | 0.00 | 89 | 1013.9 |
| 20260507054629 | 8 | 283 | 8.0 | 20.9 | 0.00 | 0.18 | 0.00 | 89 | 1013.8 |
| 20260507054126 | 8 | 265 | 6.4 | 19.3 | 0.00 | 0.18 | 0.00 | 89 | 1013.8 |
| 20260507053627 | 8 | 300 | 9.7 | 16.1 | 0.00 | 0.18 | 0.00 | 89 | 1013.6 |
| 20260507053126 | 8 | 266 | 4.8 | 14.5 | 0.00 | 0.18 | 0.00 | 89 | 1013.7 |
| 20260507052624 | 8 | 285 | 8.0 | 16.1 | 0.00 | 0.18 | 0.00 | 88 | 1013.6 |
| 20260507052125 | 8 | 276 | 9.7 | 16.1 | 0.00 | 0.18 | 0.00 | 88 | 1013.5 |
| 20260507051622 | 8 | 286 | 3.2 | 16.1 | 0.00 | 0.18 | 0.00 | 88 | 1013.6 |
| 20260507051124 | 8 | 212 | 6.4 | 16.1 | 0.00 | 0.18 | 0.00 | 87 | 1013.5 |
| 20260507050623 | 8 | 290 | 8.0 | 14.5 | 0.00 | 0.18 | 0.00 | 87 | 1013.4 |
| 20260507050121 | 8 | 292 | 4.8 | 11.3 | 0.00 | 0.18 | 0.00 | 87 | 1013.4 |
| 20260507045621 | 8 | 299 | 6.4 | 14.5 | 0.00 | 0.18 | 0.00 | 87 | 1013.3 |
| 20260507045121 | 8 | 300 | 4.8 | 14.5 | 0.00 | 0.18 | 0.00 | 87 | 1013.3 |
| 20260507044618 | 8 | 274 | 4.8 | 11.3 | 0.00 | 0.18 | 0.00 | 87 | 1013.2 |
| 20260507044118 | 8 | 279 | 6.4 | 11.3 | 0.00 | 0.18 | 0.00 | 87 | 1013.1 |
| 20260507043620 | 8 | 281 | 3.2 | 11.3 | 0.00 | 0.18 | 0.00 | 87 | 1013.0 |
| 20260507043118 | 8 | 275 | 4.8 | 11.3 | 0.00 | 0.18 | 0.00 | 87 | 1013.0 |
| 20260507042615 | 8 | 278 | 1.6 | 11.3 | 0.00 | 0.18 | 0.00 | 87 | 1012.9 |
| 20260507042119 | 8 | 265 | 3.2 | 11.3 | 0.00 | 0.18 | 0.00 | 87 | 1012.9 |
| 20260507041615 | 8 | 316 | 3.2 | 11.3 | 0.00 | 0.18 | 0.00 | 88 | 1012.9 |
| 20260507041113 | 8 | 285 | 4.8 | 11.3 | 0.00 | 0.18 | 0.00 | 88 | 1012.9 |
| 20260507040616 | 7 | 286 | 4.8 | 9.7 | 0.00 | 0.18 | 0.00 | 88 | 1012.8 |
| 20260507040113 | 7 | 274 | 3.2 | 9.7 | 0.00 | 0.18 | 0.00 | 88 | 1012.8 |
| 20260507035611 | 7 | 292 | 4.8 | 9.7 | 0.00 | 0.18 | 0.00 | 88 | 1012.7 |
| 20260507035108 | 7 | 257 | 3.2 | 9.7 | 0.00 | 0.18 | 0.00 | 88 | 1012.7 |
| 20260507034607 | 7 | 252 | 3.2 | 9.7 | 0.00 | 0.18 | 0.00 | 88 | 1012.5 |
| 20260507034104 | 7 | 286 | 3.2 | 6.4 | 0.00 | 0.18 | 0.00 | 88 | 1012.5 |
| 20260507033604 | 7 | 285 | 3.2 | 8.0 | 0.00 | 0.18 | 0.00 | 88 | 1012.5 |
| 20260507033104 | 7 | 210 | 3.2 | 11.3 | 0.00 | 0.18 | 0.00 | 88 | 1012.5 |
| 20260507032605 | 7 | 234 | 3.2 | 11.3 | 0.00 | 0.18 | 0.00 | 88 | 1012.4 |
| 20260507032105 | 7 | 224 | 3.2 | 8.0 | 0.00 | 0.18 | 0.00 | 89 | 1012.4 |
| 20260507031604 | 7 | 268 | 0.0 | 6.4 | 0.00 | 0.18 | 0.00 | 88 | 1012.5 |
| 20260507031104 | 7 | 223 | 3.2 | 4.8 | 0.00 | 0.18 | 0.00 | 88 | 1012.4 |
| 20260507030604 | 7 | 275 | 1.6 | 4.8 | 0.00 | 0.18 | 0.00 | 88 | 1012.4 |
| 20260507030106 | 7 | 257 | 1.6 | 4.8 | 0.00 | 0.18 | 0.00 | 88 | 1012.4 |
| 20260507025604 | 7 | 275 | 1.6 | 4.8 | 0.00 | 0.18 | 0.00 | 88 | 1012.4 |
| 20260507025106 | 7 | 276 | 0.0 | 6.4 | 0.00 | 0.18 | 0.00 | 88 | 1012.3 |
| 20260507024605 | 7 | 243 | 1.6 | 6.4 | 0.00 | 0.18 | 0.00 | 88 | 1012.3 |
| 20260507024105 | 7 | 257 | 0.0 | 3.2 | 0.00 | 0.18 | 0.00 | 88 | 1012.4 |
| 20260507023605 | 7 | 243 | 1.6 | 3.2 | 0.00 | 0.18 | 0.00 | 88 | 1012.3 |
| 20260507023107 | 7 | 231 | 0.0 | 9.7 | 0.00 | 0.18 | 0.00 | 88 | 1012.2 |
| 20260507022605 | 7 | 212 | 3.2 | 9.7 | 0.00 | 0.18 | 0.00 | 88 | 1012.4 |
| 20260507022104 | 7 | 228 | 1.6 | 6.4 | 0.00 | 0.18 | 0.00 | 89 | 1012.2 |
| 20260507021605 | 7 | 227 | 0.0 | 6.4 | 0.00 | 0.18 | 0.00 | 89 | 1012.3 |
| 20260507021105 | 7 | 237 | 1.6 | 6.4 | 0.00 | 0.18 | 0.00 | 89 | 1012.2 |
| 20260507020605 | 7 | 213 | 0.0 | 6.4 | 0.00 | 0.18 | 0.00 | 89 | 1012.1 |
| 20260507020104 | 7 | 206 | 1.6 | 6.4 | 0.00 | 0.18 | 0.00 | 90 | 1012.0 |
| 20260507015604 | 7 | 210 | 1.6 | 4.8 | 0.00 | 0.18 | 0.00 | 90 | 1012.0 |
| 20260507015105 | 7 | 231 | 1.6 | 4.8 | 0.00 | 0.18 | 0.00 | 90 | 1012.0 |
| 20260507014606 | 7 | 214 | 0.0 | 1.6 | 0.00 | 0.18 | 0.00 | 89 | 1011.9 |
| 20260507014104 | 7 | 183 | 0.0 | 3.2 | 0.00 | 0.18 | 0.00 | 89 | 1012.0 |
| 20260507013606 | 7 | 228 | 1.6 | 4.8 | 0.00 | 0.18 | 0.00 | 89 | 1012.0 |
| 20260507013104 | 7 | 171 | 3.2 | 4.8 | 0.00 | 0.18 | 0.00 | 89 | 1011.9 |
| 20260507012607 | 7 | 206 | 0.0 | 4.8 | 0.00 | 0.18 | 0.00 | 89 | 1012.0 |
| 20260507012104 | 7 | 207 | 1.6 | 4.8 | 0.00 | 0.18 | 0.00 | 89 | 1011.9 |
| 20260507011604 | 7 | 182 | 0.0 | 3.2 | 0.00 | 0.18 | 0.00 | 89 | 1011.9 |
| 20260507011105 | 7 | 238 | 0.0 | 6.4 | 0.00 | 0.18 | 0.00 | 88 | 1011.9 |
| 20260507010604 | 7 | 216 | 1.6 | 6.4 | 0.00 | 0.18 | 0.00 | 88 | 1011.8 |
| 20260507010104 | 8 | 214 | 3.2 | 6.4 | 0.00 | 0.18 | 0.00 | 88 | 1011.9 |
| 20260507005604 | 8 | 248 | 1.6 | 9.7 | 0.00 | 0.18 | 0.00 | 88 | 1011.8 |
| 20260507005105 | 8 | 204 | 1.6 | 9.7 | 0.00 | 0.18 | 0.00 | 88 | 1011.8 |
| 20260507004603 | 8 | 245 | 1.6 | 6.4 | 0.00 | 0.18 | 0.00 | 88 | 1011.8 |
| 20260507004104 | 8 | 234 | 1.6 | 8.0 | 0.00 | 0.18 | 0.00 | 88 | 1011.9 |
| 20260507003603 | 8 | 237 | 4.8 | 8.0 | 0.00 | 0.18 | 0.00 | 89 | 1011.9 |
| 20260507003106 | 8 | 276 | 1.6 | 9.7 | 0.00 | 0.18 | 0.00 | 89 | 1011.9 |
| 20260507002603 | 8 | 216 | 3.2 | 9.7 | 0.00 | 0.18 | 0.00 | 89 | 1011.9 |
| 20260507002106 | 8 | 233 | 4.8 | 11.3 | 0.00 | 0.18 | 0.00 | 89 | 1011.9 |
| 20260507001604 | 8 | 199 | 4.8 | 11.3 | 0.00 | 0.18 | 0.00 | 89 | 1011.9 |
| 20260507001105 | 8 | 243 | 3.2 | 9.7 | 0.00 | 0.18 | 0.00 | 89 | 1012.0 |
| 20260507000605 | 8 | 230 | 1.6 | 9.7 | 0.00 | 0.18 | 0.00 | 89 | 1011.9 |
| 20260506235604 | 8 | 173 | 1.6 | 4.8 | 0.00 | 0.18 | 0.00 | 89 | 1011.9 |
| 20260506235104 | 8 | 250 | 1.6 | 4.8 | 0.00 | 0.18 | 0.00 | 89 | 1012.0 |
| 20260506234605 | 8 | 238 | 1.6 | 4.8 | 0.00 | 0.18 | 0.00 | 89 | 1012.0 |
| 20260506234103 | 8 | 251 | 1.6 | 6.4 | 0.00 | 0.18 | 0.00 | 89 | 1012.0 |
| 20260506233605 | 8 | 244 | 3.2 | 6.4 | 0.00 | 0.18 | 0.00 | 89 | 1012.0 |
| 20260506233105 | 8 | 226 | 1.6 | 4.8 | 0.00 | 0.18 | 0.00 | 89 | 1012.0 |
| 20260506232604 | 8 | 266 | 1.6 | 8.0 | 0.00 | 0.18 | 0.00 | 89 | 1012.0 |
| 20260506232104 | 8 | 206 | 1.6 | 8.0 | 0.00 | 0.18 | 0.00 | 88 | 1012.0 |
| 20260506231606 | 8 | 244 | 1.6 | 6.4 | 0.00 | 0.18 | 0.00 | 88 | 1011.9 |
| 20260506230602 | 8 | 282 | 3.2 | 9.7 | 0.00 | 0.18 | 0.00 | 88 | 1011.7 |
| 20260506225602 | 8 | 258 | 1.6 | 8.0 | 0.00 | 0.18 | 0.00 | 88 | 1011.8 |
| 20260506225101 | 8 | 227 | 4.8 | 9.7 | 0.00 | 0.18 | 0.00 | 88 | 1011.9 |
| 20260506224603 | 8 | 279 | 3.2 | 9.7 | 0.00 | 0.18 | 0.00 | 88 | 1011.9 |
| 20260506224101 | 8 | 279 | 4.8 | 9.7 | 0.00 | 0.18 | 0.00 | 88 | 1011.8 |
| 20260506223602 | 8 | 265 | 3.2 | 9.7 | 0.00 | 0.18 | 0.00 | 88 | 1011.8 |
| 20260506223101 | 8 | 227 | 3.2 | 11.3 | 0.00 | 0.18 | 0.00 | 88 | 1011.9 |
| 20260506222602 | 8 | 261 | 1.6 | 11.3 | 0.00 | 0.18 | 0.00 | 88 | 1011.8 |
| 20260506222102 | 8 | 261 | 3.2 | 8.0 | 0.00 | 0.18 | 0.00 | 88 | 1011.8 |
| 20260506221603 | 8 | 241 | 1.6 | 9.7 | 0.00 | 0.18 | 0.00 | 88 | 1011.7 |
| 20260506221100 | 8 | 245 | 3.2 | 9.7 | 0.00 | 0.18 | 0.00 | 88 | 1011.7 |
| 20260506220600 | 8 | 258 | 3.2 | 8.0 | 0.00 | 0.18 | 0.00 | 87 | 1011.7 |
| 20260506220101 | 8 | 272 | 1.6 | 9.7 | 0.00 | 0.18 | 0.00 | 87 | 1011.6 |
| 20260506215557 | 9 | 269 | 6.4 | 9.7 | 0.00 | 0.18 | 0.18 | 87 | 1011.6 |
| 20260506215058 | 9 | 282 | 4.8 | 9.7 | 0.00 | 0.18 | 0.18 | 87 | 1011.5 |
| 20260506214559 | 9 | 271 | 4.8 | 9.7 | 0.00 | 0.18 | 0.18 | 87 | 1011.5 |
| 20260506214056 | 9 | 266 | 3.2 | 11.3 | 0.00 | 0.18 | 0.18 | 87 | 1011.4 |
| 20260506213557 | 9 | 257 | 6.4 | 11.3 | 0.00 | 0.18 | 0.18 | 87 | 1011.4 |
| 20260506213057 | 9 | 206 | 3.2 | 8.0 | 0.00 | 0.18 | 0.18 | 87 | 1011.4 |
| 20260506212554 | 9 | 261 | 1.6 | 8.0 | 0.00 | 0.18 | 0.18 | 87 | 1011.4 |
| 20260506212054 | 9 | 286 | 3.2 | 8.0 | 0.00 | 0.18 | 0.18 | 87 | 1011.4 |
| 20260506211554 | 9 | 238 | 3.2 | 14.5 | 0.00 | 0.18 | 0.18 | 87 | 1011.2 |
| 20260506211052 | 9 | 262 | 4.8 | 14.5 | 0.00 | 0.18 | 0.18 | 87 | 1011.3 |
| 20260506210552 | 9 | 185 | 4.8 | 9.7 | 0.00 | 0.18 | 0.18 | 87 | 1011.2 |
| 20260506210052 | 9 | 255 | 3.2 | 9.7 | 0.00 | 0.18 | 0.18 | 87 | 1011.1 |
| 20260506205550 | 9 | 302 | 3.2 | 14.5 | 0.00 | 0.18 | 0.18 | 87 | 1011.0 |
| 20260506205050 | 9 | 276 | 3.2 | 14.5 | 0.00 | 0.18 | 0.18 | 87 | 1011.0 |
| 20260506204552 | 9 | 282 | 3.2 | 16.1 | 0.00 | 0.18 | 0.18 | 87 | 1011.1 |
| 20260506204049 | 9 | 240 | 8.0 | 16.1 | 0.00 | 0.18 | 0.18 | 87 | 1011.2 |
| 20260506203548 | 9 | 231 | 3.2 | 14.5 | 0.00 | 0.18 | 0.18 | 87 | 1011.1 |
| 20260506203049 | 9 | 283 | 6.4 | 11.3 | 0.00 | 0.18 | 0.18 | 87 | 1011.1 |
| 20260506202546 | 9 | 258 | 3.2 | 9.7 | 0.00 | 0.18 | 0.18 | 87 | 1011.2 |
| 20260506202046 | 9 | 279 | 3.2 | 11.3 | 0.00 | 0.18 | 0.18 | 87 | 1011.1 |
| 20260506201547 | 9 | 240 | 6.4 | 11.3 | 0.00 | 0.18 | 0.18 | 86 | 1011.1 |
| 20260506201043 | 9 | 247 | 3.2 | 8.0 | 0.00 | 0.18 | 0.18 | 87 | 1011.1 |
| 20260506200542 | 9 | 245 | 3.2 | 8.0 | 0.00 | 0.18 | 0.18 | 87 | 1011.1 |
| 20260506200047 | 9 | 261 | 1.6 | 16.1 | 0.00 | 0.18 | 0.18 | 87 | 1011.2 |
| 20260506195542 | 9 | 248 | 3.2 | 16.1 | 0.00 | 0.20 | 0.18 | 87 | 1011.2 |
| 20260506195041 | 9 | 272 | 6.4 | 11.3 | 0.00 | 0.20 | 0.18 | 87 | 1011.2 |
| 20260506194543 | 9 | 235 | 6.4 | 11.3 | 0.00 | 0.20 | 0.18 | 88 | 1011.1 |
| 20260506194041 | 9 | 254 | 1.6 | 11.3 | 0.00 | 0.20 | 0.18 | 88 | 1010.9 |
| 20260506193540 | 9 | 252 | 4.8 | 11.3 | 0.00 | 0.20 | 0.18 | 88 | 1010.9 |
| 20260506193040 | 9 | 234 | 3.2 | 9.7 | 0.00 | 0.20 | 0.18 | 88 | 1010.8 |
| 20260506192536 | 9 | 258 | 3.2 | 9.7 | 0.00 | 0.20 | 0.18 | 88 | 1010.7 |
| 20260506192035 | 9 | 214 | 3.2 | 8.0 | 0.00 | 0.20 | 0.18 | 88 | 1010.7 |
| 20260506191531 | 9 | 235 | 3.2 | 8.0 | 0.00 | 0.20 | 0.18 | 88 | 1010.7 |
| 20260506191035 | 9 | 207 | 3.2 | 8.0 | 0.00 | 0.20 | 0.18 | 88 | 1010.4 |
| 20260506190530 | 10 | 259 | 3.2 | 6.4 | 0.00 | 0.20 | 0.18 | 88 | 1010.4 |
| 20260506190029 | 10 | 213 | 1.6 | 8.0 | 0.00 | 0.20 | 0.18 | 88 | 1010.3 |
| 20260506185530 | 10 | 234 | 1.6 | 8.0 | 0.00 | 0.20 | 0.18 | 88 | 1010.2 |
| 20260506185029 | 10 | 240 | 3.2 | 14.5 | 0.00 | 0.20 | 0.18 | 88 | 1010.3 |
| 20260506184529 | 10 | 251 | 4.8 | 14.5 | 0.00 | 0.20 | 0.18 | 88 | 1010.3 |
| 20260506184030 | 10 | 251 | 4.8 | 9.7 | 0.00 | 0.20 | 0.18 | 89 | 1010.1 |
| 20260506183529 | 10 | 272 | 3.2 | 11.3 | 0.00 | 0.20 | 0.18 | 88 | 1010.0 |
| 20260506183027 | 10 | 217 | 4.8 | 11.3 | 0.00 | 0.20 | 0.18 | 88 | 1010.0 |
| 20260506182527 | 10 | 244 | 6.4 | 11.3 | 0.00 | 0.20 | 0.18 | 88 | 1009.9 |
| 20260506182029 | 10 | 299 | 4.8 | 22.5 | 0.00 | 0.20 | 0.18 | 88 | 1009.8 |
| 20260506181525 | 10 | 316 | 3.2 | 22.5 | 0.00 | 0.20 | 0.18 | 87 | 1009.8 |
| 20260506181024 | 10 | 258 | 8.0 | 22.5 | 0.00 | 0.20 | 0.18 | 87 | 1009.6 |
| 20260506180520 | 10 | 278 | 9.7 | 22.5 | 0.00 | 0.20 | 0.18 | 87 | 1009.6 |
| 20260506180019 | 10 | 254 | 11.3 | 20.9 | 0.00 | 0.20 | 0.18 | 87 | 1009.6 |
| 20260506175521 | 10 | 271 | 14.5 | 20.9 | 0.00 | 0.20 | 0.18 | 87 | 1009.5 |
| 20260506175018 | 10 | 282 | 6.4 | 19.3 | 0.00 | 0.20 | 0.18 | 87 | 1009.5 |
| 20260506174518 | 10 | 285 | 8.0 | 19.3 | 0.00 | 0.20 | 0.18 | 87 | 1009.5 |
| 20260506174020 | 10 | 283 | 11.3 | 19.3 | 0.00 | 0.20 | 0.18 | 86 | 1009.3 |
| 20260506173015 | 10 | 276 | 8.0 | 20.9 | 0.00 | 0.20 | 0.18 | 86 | 1009.2 |
| 20260506172517 | 10 | 306 | 8.0 | 16.1 | 0.00 | 0.20 | 0.18 | 87 | 1009.0 |
| 20260506172012 | 10 | 312 | 6.4 | 19.3 | 0.00 | 0.20 | 0.18 | 86 | 1009.1 |
| 20260506171513 | 10 | 295 | 4.8 | 20.9 | 0.00 | 0.20 | 0.18 | 86 | 1008.9 |
| 20260506171006 | 10 | 298 | 9.7 | 20.9 | 0.00 | 0.20 | 0.18 | 86 | 1008.8 |
| 20260506170509 | 10 | 302 | 8.0 | 24.1 | 0.00 | 0.20 | 0.18 | 86 | 1008.9 |
| 20260506170006 | 10 | 300 | 9.7 | 24.1 | 0.00 | 0.20 | 0.18 | 87 | 1008.9 |
| 20260506165503 | 10 | 278 | 9.7 | 22.5 | 0.00 | 0.18 | 0.18 | 87 | 1008.9 |
| 20260506165004 | 10 | 290 | 11.3 | 22.5 | 0.00 | 0.18 | 0.18 | 87 | 1009.0 |
| 20260506164504 | 10 | 290 | 8.0 | 24.1 | 0.00 | 0.18 | 0.18 | 88 | 1009.1 |
| 20260506164004 | 10 | 262 | 12.9 | 24.1 | 0.00 | 0.18 | 0.18 | 88 | 1009.1 |
| 20260506163504 | 10 | 279 | 8.0 | 20.9 | 0.10 | 0.18 | 0.18 | 87 | 1009.0 |
| 20260506163004 | 10 | 261 | 11.3 | 22.5 | 0.18 | 0.18 | 0.18 | 88 | 1009.0 |
| 20260506162503 | 10 | 262 | 9.7 | 25.7 | 0.18 | 0.18 | 0.18 | 87 | 1008.8 |
| 20260506162003 | 10 | 289 | 6.4 | 30.6 | 0.18 | 0.18 | 0.18 | 88 | 1008.8 |
| 20260506161505 | 11 | 314 | 19.3 | 30.6 | 0.18 | 0.18 | 0.18 | 87 | 1008.7 |
| 20260506161003 | 11 | 262 | 14.5 | 27.4 | 0.18 | 0.18 | 0.18 | 88 | 1008.7 |
| 20260506160504 | 11 | 292 | 16.1 | 27.4 | 0.18 | 0.18 | 0.18 | 88 | 1008.5 |
| 20260506160005 | 11 | 333 | 9.7 | 30.6 | 0.18 | 0.18 | 0.18 | 89 | 1008.3 |
| 20260506155504 | 11 | 279 | 11.3 | 35.4 | 0.18 | 0.00 | 0.18 | 89 | 1008.5 |
| 20260506155005 | 11 | 268 | 14.5 | 35.4 | 0.18 | 0.00 | 0.18 | 88 | 1008.2 |
| 20260506154504 | 11 | 288 | 14.5 | 32.2 | 0.18 | 0.00 | 0.18 | 87 | 1008.3 |
| 20260506154005 | 12 | 216 | 14.5 | 38.6 | 0.18 | 0.00 | 0.18 | 85 | 1008.3 |
| 20260506153503 | 13 | 278 | 19.3 | 45.1 | 0.08 | 0.00 | 0.05 | 79 | 1008.2 |
| 20260506153004 | 15 | 214 | 16.1 | 46.7 | 0.00 | 0.00 | 0.00 | 66 | 1007.9 |
| 20260506152504 | 17 | 228 | 24.1 | 46.7 | 0.00 | 0.00 | 0.00 | 57 | 1007.3 |
| 20260506152004 | 18 | 235 | 1.6 | 4.8 | 0.00 | 0.00 | 0.00 | 54 | 1006.8 |
| 20260506151503 | 18 | 265 | 1.6 | 8.0 | 0.00 | 0.00 | 0.00 | 51 | 1006.5 |
| 20260506151005 | 18 | 233 | 1.6 | 8.0 | 0.00 | 0.00 | 0.00 | 50 | 1006.2 |
| 20260506150503 | 19 | 162 | 1.6 | 8.0 | 0.00 | 0.00 | 0.00 | 50 | 1006.1 |
| 20260506150004 | 19 | 157 | 6.4 | 8.0 | 0.00 | 0.00 | 0.00 | 50 | 1006.2 |
| 20260506145503 | 18 | 221 | 0.0 | 6.4 | 0.00 | 0.00 | 0.00 | 55 | 1006.4 |
| 20260506145006 | 18 | 173 | 3.2 | 4.8 | 0.00 | 0.00 | 0.00 | 52 | 1006.5 |
| 20260506144503 | 18 | 195 | 1.6 | 4.8 | 0.00 | 0.00 | 0.00 | 53 | 1006.5 |
| 20260506144004 | 18 | 274 | 3.2 | 8.0 | 0.00 | 0.00 | 0.00 | 54 | 1006.6 |
| 20260506143504 | 18 | 224 | 3.2 | 11.3 | 0.00 | 0.00 | 0.00 | 53 | 1006.5 |
| 20260506143001 | 17 | 251 | 1.6 | 11.3 | 0.00 | 0.00 | 0.00 | 54 | 1006.6 |
| 20260506142503 | 18 | 266 | 6.4 | 9.7 | 0.00 | 0.00 | 0.00 | 54 | 1006.6 |
| 20260506142001 | 18 | 224 | 3.2 | 8.0 | 0.00 | 0.00 | 0.00 | 54 | 1006.5 |
| 20260506141501 | 17 | 223 | 1.6 | 9.7 | 0.00 | 0.00 | 0.00 | 58 | 1006.1 |
| 20260506141001 | 17 | 203 | 1.6 | 9.7 | 0.00 | 0.00 | 0.00 | 56 | 1006.6 |
| 20260506140501 | 17 | 243 | 3.2 | 6.4 | 0.00 | 0.00 | 0.00 | 58 | 1006.7 |
| 20260506140001 | 17 | 261 | 3.2 | 6.4 | 0.00 | 0.00 | 0.00 | 60 | 1006.8 |
| 20260506135500 | 17 | 266 | 1.6 | 3.2 | 0.00 | 0.00 | 0.00 | 59 | 1006.7 |
| 20260506135003 | 17 | 289 | 1.6 | 3.2 | 0.00 | 0.00 | 0.00 | 60 | 1006.7 |
| 20260506134459 | 17 | 262 | 0.0 | 4.8 | 0.00 | 0.00 | 0.00 | 60 | 1006.9 |
| 20260506133958 | 17 | 276 | 1.6 | 6.4 | 0.00 | 0.00 | 0.00 | 56 | 1006.9 |
| 20260506133454 | 17 | 248 | 1.6 | 8.0 | 0.00 | 0.00 | 0.00 | 57 | 1007.0 |
| 20260506132954 | 17 | 220 | 3.2 | 8.0 | 0.00 | 0.00 | 0.00 | 52 | 1006.9 |
| 20260506132455 | 17 | 164 | 1.6 | 6.4 | 0.00 | 0.00 | 0.00 | 53 | 1006.8 |
| 20260506131954 | 18 | 240 | 4.8 | 6.4 | 0.00 | 0.00 | 0.00 | 52 | 1006.8 |
| 20260506131451 | 18 | 164 | 1.6 | 6.4 | 0.00 | 0.00 | 0.00 | 52 | 1006.7 |
| 20260506130952 | 18 | 130 | 1.6 | 8.0 | 0.00 | 0.00 | 0.00 | 52 | 1006.7 |
| 20260506130451 | 18 | 159 | 3.2 | 8.0 | 0.00 | 0.00 | 0.00 | 52 | 1006.8 |
| 20260506125948 | 18 | 137 | 4.8 | 8.0 | 0.00 | 0.00 | 0.00 | 52 | 1006.7 |
| 20260506125447 | 18 | 151 | 3.2 | 8.0 | 0.00 | 0.00 | 0.00 | 53 | 1006.7 |
| 20260506124943 | 18 | 96 | 1.6 | 8.0 | 0.00 | 0.00 | 0.00 | 53 | 1006.6 |
| 20260506124442 | 18 | 147 | 4.8 | 8.0 | 0.00 | 0.00 | 0.00 | 53 | 1006.6 |
| 20260506123941 | 18 | 202 | 1.6 | 4.8 | 0.00 | 0.00 | 0.00 | 53 | 1006.6 |
| 20260506123441 | 18 | 252 | 0.0 | 4.8 | 0.00 | 0.03 | 0.00 | 52 | 1006.6 |
| 20260506122939 | 18 | 121 | 0.0 | 4.8 | 0.00 | 0.03 | 0.00 | 53 | 1006.7 |
| 20260506122440 | 18 | 147 | 3.2 | 6.4 | 0.00 | 0.03 | 0.00 | 53 | 1006.6 |
| 20260506121941 | 17 | 134 | 3.2 | 6.4 | 0.00 | 0.03 | 0.00 | 53 | 1006.7 |
| 20260506121437 | 17 | 127 | 1.6 | 9.7 | 0.00 | 0.03 | 0.00 | 54 | 1006.7 |
| 20260506120936 | 17 | 192 | 3.2 | 9.7 | 0.00 | 0.03 | 0.00 | 55 | 1006.7 |
| 20260506120437 | 18 | 117 | 4.8 | 11.3 | 0.00 | 0.03 | 0.00 | 55 | 1006.6 |
| 20260506115936 | 18 | 87 | 3.2 | 11.3 | 0.00 | 0.03 | 0.00 | 54 | 1006.8 |
| 20260506115434 | 18 | 140 | 3.2 | 6.4 | 0.00 | 0.03 | 0.00 | 54 | 1006.8 |
| 20260506114935 | 18 | 206 | 0.0 | 3.2 | 0.00 | 0.03 | 0.00 | 53 | 1006.7 |
| 20260506114432 | 18 | 155 | 0.0 | 6.4 | 0.00 | 0.03 | 0.00 | 55 | 1006.7 |
| 20260506113933 | 18 | 28 | 0.0 | 8.0 | 0.00 | 0.03 | 0.00 | 54 | 1006.8 |
| 20260506113428 | 18 | 247 | 3.2 | 8.0 | 0.00 | 0.03 | 0.00 | 53 | 1006.9 |